Regional Weather Roundup
Issued by NWS

Home | Current Version | Previous Version | Graphics & Text | Print | Product List | Glossary On
Versions: 1 2 3 4 5 6 7 8 9 10 11 12 13 14 15 16 17 18 19 20 21 22 23 24 25 26 27 28 29 30 31 32 33 34 35 36 37 38 39 40 41 42 43 44 45 46 47 48 49 50
021
ASUS45 KTFX 110410
RWRMT
MONTANA REGIONAL WEATHER ROUNDUP
NATIONAL WEATHER SERVICE GREAT FALLS MT
900 PM MST SUN DEC 10 2017

NOTE: "FAIR" INDICATES FEW OR NO CLOUDS BELOW 12000 FEET WITH NO
SIGNIFICANT WEATHER AND/OR OBSTRUCTIONS TO VISIBILITY.

MTZ001>007-043-110500-
WEST OF THE DIVIDE

CITY           SKY/WX    TMP DP  RH WIND       PRES   REMARKS
KALISPELL      CLOUDY    25  23  92 CALM      30.62S
MISSOULA       MOCLDY    17  15  92 SE6       30.62R WCI   9
BUTTE          FAIR      14   7  73 SE3       30.51S
MULLAN PASS    FAIR      40  32  73 W3        30.49R
ANACONDA         N/A     21  12  68 SW6       30.51F WCI  14
DEER LODGE       N/A     12  10  92 CALM      30.55S
EUREKA           N/A    N/A N/A N/A MISG      30.66S
HAMILTON         N/A     18  14  86 CALM      30.59R VSB 3/4
LIBBY            N/A     21  19  93 CALM      30.62R
PLAINS           N/A     21  15  78 CALM      30.60R
RONAN            N/A     25  20  81 SW2       30.59R
$$

MTZ008-052>055-110500-
SOUTHWEST MONTANA

CITY           SKY/WX    TMP DP  RH WIND       PRES   REMARKS
BOZEMAN        FAIR      11   6  81 SE6       30.50R WCI   1
DILLON         FAIR      25  14  63 S8        30.50R WCI  16
W YELLOWSTONE  FAIR       3   0  85 CALM      30.58R
ENNIS          CLOUDY    30  12  47 SE7       30.55R WCI  23
THREE FORKS      N/A     11   7  84 CALM      30.42S
TWIN BRIDGES     N/A     19   8  62 E1        30.43R
$$

MTZ009-010-012-014-046-048-049-054-110500-
EAST SLOPES AND CENTRAL MONTANA

CITY           SKY/WX    TMP DP  RH WIND       PRES   REMARKS
CUT BANK       FAIR      40  14  34 W17       30.34R
GREAT FALLS    FAIR      37  12  35 SW14      30.37R WCI  28
MALMSTROM AFB  FAIR      37  13  37 SW13      30.37R WCI  29
HELENA         FAIR      20  15  81 CALM      30.49R
BOWMANS CRNR   FAIR      33  11  39 S14       30.38R WCI  24
CHOTEAU          N/A     45  14  29 S7        30.37R
FAIRFIELD      FAIR      37  14  40 S6        30.36R WCI  32
POWER          FAIR      31  14  50 W9        30.35R WCI  23
RAYNESFORD     MOCLDY    50  13  23 SW20      30.35R
ULM            FAIR      37  13  38 S6        30.39R WCI  32
$$

MTZ011-013-016-021-045-047-050-051-110500-
NORTH CENTRAL MONTANA

CITY           SKY/WX    TMP DP  RH WIND       PRES   REMARKS
HAVRE          FAIR      39  18  42 SW9       30.32R
LEWISTOWN      FAIR      44  16  32 VRB3      30.33R
N BAR RANCH    FAIR      48  12  23 NW23G31   30.29S
CHINOOK          N/A     41  18  38 W8        30.30R
DENTON         FAIR      43  14  30 MISG      30.27R
GEYSER         MOCLDY    45  13  28 W20       30.33R
GRASS RANGE    FAIR      44  15  31 W24       30.25R
STANFORD       FAIR      42  14  33 W3        30.33R
WINIFRED       FAIR      44  13  27 W9        30.29R
$$

MTZ017>020-022>027-061-062-110500-
NORTHEAST MONTANA

CITY           SKY/WX    TMP DP  RH WIND       PRES   REMARKS
GLASGOW        FAIR      41  17  38 NW21      30.15S
GLENDIVE       FAIR      45  16  31 NW28G36   30.09R
JORDAN           N/A     41  16  36 NW14      30.19R
SIDNEY         FAIR      40  17  39 NW17      30.03R
WOLF POINT     FAIR      47  22  37 NW29G41   30.10R
MALTA          CLEAR     45  19  36 NW17      30.23R
PLENTYWOOD       N/A     43  27  52 NW36G47   29.93F
POPLAR           N/A     45  19  36 NW23G30   30.07S
SCOBEY           N/A     42  22  45 NW33      30.02F
$$

MTZ028>42-056>058-110500-
SOUTHCENTRAL AND SOUTHEAST MONTANA

CITY           SKY/WX    TMP DP  RH WIND       PRES   REMARKS
BAKER          FAIR      39  19  44 W16       30.09R WCI  30
BILLINGS       FAIR      39  15  37 SW13G23   30.30F WCI  31
LIVINGSTON     FAIR      46  11  24 W23G30    30.41S
MILES CITY     FAIR      41  16  36 W7        30.17R
BIG TIMBER     CLEAR     45   9  23 W29G36    30.37S
FORSYTH          N/A     48  16  27 W12       30.22R
HARLOWTON      MOCLDY    42  10  26 NW26      30.33R
LAUREL           N/A     39  14  35 SW9       30.33F
ROUNDUP          N/A     42  10  27 S13       30.17S
$$

REGIONAL REPORTS...DAKOTAS

CITY           SKY/WX    TMP DP  RH WIND       PRES   REMARKS
WILLISTON      FAIR      40  21  46 W18G26    29.97F
MINOT          CLOUDY    44  24  45 W22G29    29.82F
DICKINSON      FAIR      35  18  49 W13       29.96F WCI  26
BEACH          FAIR      39  14  35 NW29G36   30.09R WCI  28
CROSBY         FAIR      41  28  60 NW33G45   29.89F
TIOGA          FAIR      37  23  56 W22G33    29.92S WCI  27
BISMARCK       CLOUDY    44  26  49 W14       29.93S
GRAND FORKS    CLOUDY    28  26  92 S13       29.80F WCI  17
FARGO          LGT SNOW  29  27  92 S13       29.85F FOG     WCI  19
BUFFALO SD       N/A     45  16  31 W26       30.00S
RAPID CITY     FAIR      43   8  23 W9        30.12S
$$

REGIONAL REPORTS...WYOMING/IDAHO/WASHINGTON

CITY           SKY/WX    TMP DP  RH WIND       PRES   REMARKS
GILLETTE       FAIR      35  15  44 W13       30.27R WCI  26
SHERIDAN       FAIR      43  11  27 N10       30.32R
BUFFALO WY     FAIR      46   5  18 NW14G26   30.31R
CODY           FAIR      28  14  55 S5        30.39R
YELLOWSTONE LA   N/A      8   5  87 CALM      30.58R
IDAHO FALLS    FAIR      12  10  92 N5        30.59S
SALMON         CLOUDY    17  13  84 CALM      30.74R
BOISE          CLOUDY    26  20  77 CALM      30.66S
SPOKANE        CLOUDY    26  24  92 NE6       30.59S WCI  19
$$

REGIONAL REPORTS...ALBERTA

CITY           SKY/WX    TMP DP  RH WIND       PRES   REMARKS
EDMONTON       CLEAR     37  23  56 W10       30.26S WCI  30
CALGARY        CLEAR     41  12  30 VRB8      30.32R
LETHBRIDGE     PTCLDY    39  16  38 E8        30.35R
MEDICINE HAT   CLEAR     37  21  52 W7        30.31R
$$

REGIONAL REPORTS...SASKATCHEWAN

CITY           SKY/WX    TMP DP  RH WIND       PRES   REMARKS
SWIFT CURRENT  CLEAR     39  27  60 NW35G51   30.11R WCI  27
REGINA         CLOUDY    37  30  75 NW31G43   29.89R WCI  25
SASKATOON      CLOUDY    37  32  81 NW25G35   30.00R WCI  26
$$




USA.gov is the U.S. government's official web portal to all federal, state and local government web resources and services.